Starlink 30587

operational
NORAD ID: 58064 Int'l Des: 2023-158 Owner: SPXS Country: US Constellation: starlink
LEOCIRCULAR

About Starlink 30587

Description loading...

Live Position

Loading 3D Globe...

Upcoming Passes

Altitude History

Altitude vs Time

uPlot chart will show altitude changes over time

Two-Line Element Set

1 58064U 23158P 26047.62036884 .00011453 00000-0 85919-3 0 9997
2 58064 43.0035 144.6730 0001612 211.3902 148.6845 15.02637163130366
Epoch: Feb 16, 2026 • Age: 34 hours

Current Status

Altitude 558.7 km
Velocity 7.58 km/s
Sub-Earth Point 9.91°N, 7.01°W
Launch Date Oct 13, 2023
Age 2.3 years
Type internet

Technical Details

Classification Payload
Mass 730.00 kg
Dry Mass 700.00 kg
Total Mass 730.00 kg
Length 0.30 m
Diameter 4.10 m
Span 29.00 m
Shape Box + pan
Manufacturer SPXS
Bus Type Starlink V2M
Phase Status In Orbit
Owner/State SPXS/US

Large Constellations

Loading constellations...